Observations
| Time | Sensor | AQI | SAQ | Temp °C | Hum % | Pres Pa | CO μg/m³ | H₂S μg/m³ | NO μg/m³ | NO₂ μg/m³ | O₃ μg/m³ | SO₂ μg/m³ | CO₂e PPM | VOC PPM | PM1 μg/m³ | PM2.5 μg/m³ | PM4 μg/m³ | PM10 μg/m³ | TPS µm |
|---|---|---|---|---|---|---|---|---|---|---|---|---|---|---|---|---|---|---|---|
| Tuesday 11 August 2026 | |||||||||||||||||||
| 19:16 | Trim Market St | 3 | 29.8 | 29 | 66,242 | 0 | 8.81 | 0.6 | 20.68 | 60.85 | 0 | 1.43 | 4.97 | 5.46 | |||||
| 19:16 | Trim Patrick St | 3 | 32.3 | 27 | 69,452 | 0 | 36.24 | 0.42 | 17.41 | 81.01 | 25.43 | 4.57 | 10.27 | 11.3 | |||||
| 19:15 | Trim Market St | 3 | 29.8 | 29 | 66,242 | 0 | 13.28 | 0.6 | 27.56 | 62.88 | 0 | 2.85 | 6.05 | 6.66 | |||||
| 19:15 | Trim Patrick St | 3 | 32.5 | 27 | 69,448 | 0 | 38.17 | 0.4 | 28.85 | 87.29 | 25.19 | 3.71 | 10.3 | 11.33 | |||||
| 19:14 | Trim Market St | 3 | 29.9 | 29 | 66,244 | 0 | 11.54 | 0.59 | 23.52 | 63.85 | 0 | 2.85 | 7.15 | 9.26 | |||||
| 19:14 | Trim Patrick St | 3 | 32.7 | 27 | 69,469 | 0 | 34.23 | 0.39 | 22.59 | 81.77 | 25.37 | 4.57 | 10.32 | 11.35 | |||||
| 19:13 | Trim Market St | 3 | 30 | 29 | 66,242 | 0 | 10.73 | 0.57 | 24.94 | 62.93 | 0 | 2.85 | 6.06 | 6.67 | |||||
| 19:13 | Trim Patrick St | 3 | 32.9 | 27 | 69,465 | 0 | 28.37 | 0.36 | 16.97 | 76.73 | 25.35 | 3.71 | 11.14 | 12.25 | |||||
| 19:12 | Trim Market St | 3 | 30 | 29 | 66,242 | 0 | 9.28 | 0.59 | 21.8 | 62.43 | 0 | 2.14 | 4.43 | 4.88 | |||||
| 19:12 | Trim Patrick St | 3 | 33 | 26 | 69,464 | 0 | 28.07 | 0.36 | 16.78 | 64.28 | 25.09 | 4.57 | 10.33 | 11.37 | |||||
| 19:11 | Trim Market St | 3 | 30.1 | 29 | 66,244 | 0 | 10.64 | 0.58 | 20.76 | 65.05 | 0 | 1.43 | 3.88 | 4.27 | |||||
| 19:11 | Trim Patrick St | 3 | 33.2 | 27 | 69,452 | 0 | 33.06 | 0.32 | 17.36 | 75.48 | 25.68 | 3.71 | 10.31 | 11.35 | |||||
| 19:10 | Trim Market St | 3 | 30.1 | 29 | 66,246 | 0 | 12.81 | 0.57 | 26.91 | 61.17 | 0 | 1.43 | 4.98 | 5.48 | |||||
| 19:10 | Trim Patrick St | 3 | 33.3 | 26 | 69,465 | 0 | 30.5 | 0.32 | 23.07 | 68.38 | 25.99 | 3.71 | 11.16 | 12.28 | |||||
| 19:09 | Trim Market St | 3 | 30.2 | 29 | 66,240 | 0 | 11.92 | 0.55 | 27.09 | 61.39 | 0 | 1.43 | 4.98 | 5.48 | |||||
| 19:09 | Trim Patrick St | 3 | 33.5 | 27 | 69,481 | 0 | 32.13 | 0.36 | 22.89 | 65.83 | 25.2 | 2 | 9.51 | 10.47 | |||||
| 19:08 | Trim Market St | 3 | 30.2 | 29 | 66,236 | 0 | 14.36 | 0.56 | 29.32 | 61.53 | 0 | 0.71 | 4.44 | 4.88 | |||||
| 19:08 | Trim Patrick St | 3 | 33.7 | 26 | 69,505 | 0 | 32.62 | 0.4 | 30.45 | 70.1 | 25.07 | 4.57 | 11.15 | 12.27 | |||||
| 19:07 | Trim Market St | 3 | 30.3 | 29 | 66,231 | 0 | 13.12 | 0.55 | 28.42 | 62.85 | 0 | 0.71 | 3.9 | 4.29 | |||||
| 19:07 | Trim Patrick St | 3 | 33.8 | 26 | 69,537 | 0 | 33.97 | 0.44 | 27.87 | 71.19 | 25.99 | 4.57 | 11.18 | 12.3 | |||||